This is the latest recevied weather packets stored in our database for station/object EA8EE-7. If no packets are shown the sender has not sent any weather packets the latest 10 day(s).
| Time | Temp. | Humidity | Pressure | Rain* | Wind** | Luminosity | Snow |
|---|---|---|---|---|---|---|---|
| 1788354863 | 35° C | 32% | 1010.8 hPa | - | - | - | - |
| 1788354263 | 35° C | 32% | 965.4 hPa | - | - | - | - |
| 1788353663 | 35° C | 32% | 965.4 hPa | - | - | - | - |
| 1788353063 | 35° C | 33% | 965.5 hPa | - | - | - | - |
| 1788352463 | 35.56° C | 33% | 938.1 hPa | - | - | - | - |
| 1788351863 | 35.56° C | 33% | 938.1 hPa | - | - | - | - |
| 1788351028 | 35.56° C | 34% | 986 hPa | - | - | - | - |
| 1788350428 | 35.56° C | 34% | 986.1 hPa | - | - | - | - |
| 1788349824 | 35.56° C | 34% | 986.1 hPa | - | - | - | - |
| 1788349224 | 35.56° C | 34% | 986.2 hPa | - | - | - | - |
| 1788348024 | 35.56° C | 34% | 1024.3 hPa | - | - | - | - |
| 1788346823 | 36.11° C | 33% | 964.9 hPa | - | - | - | - |
| 1788345582 | 37.78° C | 31% | 1025 hPa | - | - | - | - |
| 1788344982 | 37.78° C | 31% | 1026.3 hPa | - | - | - | - |
| 1788344382 | 38.33° C | 31% | 1026.1 hPa | - | - | - | - |
| 1788343782 | 37.78° C | 31% | 944.9 hPa | - | - | - | - |
| 1788343182 | 37.22° C | 32% | 1021.9 hPa | - | - | - | - |
| 1788342582 | 37.22° C | 32% | 940.2 hPa | - | - | - | - |
| 1788341978 | 37.22° C | 32% | 940.6 hPa | - | - | - | - |
| 1788340777 | 37.78° C | 32% | 950.6 hPa | - | - | - | - |
| 1788340175 | 37.78° C | 32% | 945.4 hPa | - | - | - | - |
| 1788338975 | 37.78° C | 32% | 941.8 hPa | - | - | - | - |
| 1788337173 | 38.33° C | 32% | 1020.2 hPa | - | - | - | - |
| 1788336572 | 38.33° C | 31% | 1024.1 hPa | - | - | - | - |
| 1788335372 | 37.78° C | 31% | 1026.1 hPa | - | - | - | - |
* Rain since midnight (hover to see other rain measurements)
** Current wind speed in m/s (hover to see current wind gust speed)